Home   Weather   Greenville   Past weeks
Flag for USA

Past Weather in Greenville, North Carolina, USA — Yesterday and Last 2 Weeks

Now
61 °F

Sunny.


Feels Like: 61 °F
Forecast: 86 / 61 °F
Wind: 6 mph from Southwest

Location: Greenville Airport

Current Time: Apr 24, 2019 at 8:08:27 am

Latest Report: Apr 24, 2019 at 7:25 am


Visibility: 10 mi

Pressure: 29.93 "Hg

Humidity: 77%

Dew Point: 54 °F

Location of GreenvilleLocation

Past Weather in Greenville — Graph

°F

Greenville Temperature Yesterday

Maximum temperature yesterday: 82 °F (at 4:45 pm)
Minimum temperature yesterday: 50 °F (at 4:45 am)
Average temperature yesterday: 66 °F

High & Low Weather Summary for the Past Weeks

 TemperatureHumidityPressure
High82 °F (Apr 14, 2:25 pm)100% (Apr 9, 6:25 am)30.30 "Hg (Apr 9, 6:25 am)
Low43 °F (Apr 16, 5:05 am)24% (Apr 16, 3:05 pm)29.56 "Hg (Apr 15, 3:25 am)
Average66 °F67%29.99 "Hg
* Reported Apr 9 6:05 am — Apr 24 6:45 am, Greenville. Weather by CustomWeather, © 2019

Note: Actual official high and low records may vary slightly from our data, if they occured in-between our weather recording intervals... More about our weather records

Advertising

Greenville Weather History for the Previous 24 Hours

Scroll right to see more
 ConditionsComfort  
Time TempWeatherWind HumidityBarometerVisibility
6:45 am
Wed, Apr 24
61 °FSunny.5 mph77%29.92 "Hg10 mi
6:25 am61 °FSunny.6 mph77%29.91 "Hg10 mi
6:05 am61 °FClear.7 mph77%29.91 "Hg10 mi
5:45 am63 °FClear.6 mph73%29.90 "Hg10 mi
5:25 am63 °FClear.8 mph73%29.90 "Hg10 mi
5:05 am63 °FClear.8 mph73%29.90 "Hg10 mi
4:45 am63 °FClear.8 mph73%29.91 "Hg10 mi
4:25 am63 °FClear.10 mph73%29.90 "Hg10 mi
4:05 am63 °FClear.9 mph73%29.91 "Hg10 mi
3:25 am64 °FClear.9 mph68%29.92 "Hg10 mi
3:05 am64 °FClear.10 mph68%29.92 "Hg10 mi
2:45 am64 °FClear.9 mph68%29.93 "Hg10 mi
2:05 am64 °FClear.10 mph64%29.94 "Hg10 mi
1:45 am64 °FClear.9 mph64%29.95 "Hg10 mi
1:25 am64 °FClear.9 mph64%29.95 "Hg10 mi
1:05 am64 °FClear.9 mph64%29.95 "Hg10 mi
12:45 am64 °FClear.9 mph64%29.96 "Hg10 mi
12:25 am64 °FClear.7 mph64%29.97 "Hg10 mi
12:05 am64 °FClear.9 mph64%29.96 "Hg10 mi
11:45 pm
Tue, Apr 23
64 °FClear.9 mph64%29.97 "Hg10 mi
11:25 pm64 °FClear.10 mph64%29.97 "Hg10 mi
11:05 pm66 °FClear.9 mph60%29.97 "Hg10 mi
10:45 pm68 °FClear.10 mph56%29.97 "Hg10 mi
10:25 pm68 °FClear.9 mph56%29.98 "Hg10 mi
10:05 pm68 °FClear.10 mph56%29.98 "Hg10 mi
9:25 pm70 °FClear.9 mph53%29.98 "Hg10 mi
9:05 pm70 °FClear.9 mph53%29.98 "Hg10 mi
8:45 pm72 °FClear.10 mph50%29.98 "Hg10 mi
8:25 pm72 °FClear.9 mph53%29.98 "Hg10 mi
8:05 pm73 °FClear.10 mph50%29.98 "Hg10 mi
7:25 pm77 °FSunny.7 mph42%29.98 "Hg10 mi
7:05 pm79 °FSunny.8 mph39%29.98 "Hg10 mi
6:25 pm81 °FSunny.9 mph34%29.98 "Hg10 mi
6:05 pm81 °FSunny.6 mph37%29.99 "Hg10 mi
5:45 pm81 °FSunny.10 mph34%29.99 "Hg10 mi
5:25 pm81 °FSunny.10 mph34%29.99 "Hg10 mi
4:45 pm82 °FSunny.10 mph35%30.00 "Hg10 mi
4:25 pm81 °FSunny.12 mph34%30.00 "Hg10 mi
4:05 pm81 °FSunny.12 mph34%30.01 "Hg10 mi
3:45 pm81 °FSunny.8 mph37%30.01 "Hg10 mi
3:25 pm81 °FSunny.6 mph34%30.02 "Hg10 mi
3:05 pm81 °FSunny.9 mph34%30.03 "Hg10 mi
2:45 pm81 °FSunny.9 mph34%30.04 "Hg10 mi
2:05 pm79 °FSunny.8 mph34%30.06 "Hg10 mi
1:25 pm79 °FSunny.3 mph32%30.08 "Hg10 mi
1:05 pm77 °FSunny.6 mph34%30.08 "Hg10 mi
12:25 pm77 °FSunny.6 mph34%30.11 "Hg10 mi
12:05 pm77 °FSunny.8 mph34%30.11 "Hg10 mi
11:25 am73 °FSunny.3 mph41%30.13 "Hg10 mi
11:05 am73 °FSunny.5 mph44%30.13 "Hg10 mi
10:45 am72 °FSunny.3 mph47%30.13 "Hg10 mi
10:25 am72 °FSunny.3 mph47%30.13 "Hg10 mi
10:05 am70 °FSunny.5 mph53%30.13 "Hg10 mi
9:45 am68 °FSunny.5 mph56%30.13 "Hg10 mi
9:05 am64 °FSunny.6 mph64%30.13 "Hg10 mi
8:45 am64 °FSunny.3 mph64%30.13 "Hg10 mi
8:25 am63 °FSunny.No wind64%30.13 "Hg10 mi
8:05 am61 °FSunny.3 mph68%30.13 "Hg10 mi
Weather by CustomWeather, © 2019

See weather overview